Mount Holly, NJ

12:36 AM EDT on April 27, 2017 (GMT -0400)
South Jersey Regional

Weather History for KVAY - February, 2013

Change the Weather History Date:

Tuesday, February 26, 2013

  Actual Average (KPNE) Record (KPNE)
Temperature  
Mean Temperature 35 °F -  
Max Temperature 45 °F 44 °F 66 °F (2002)
Min Temperature 25 °F 28 °F 15 °F (2005)
Degree Days  
Heating Degree Days 30    
Moisture  
Dew Point 31 °F    
Average Humidity 81    
Maximum Humidity 93    
Minimum Humidity 58    
Precipitation  
Precipitation 0.40 in - - ()
Sea Level Pressure  
Sea Level Pressure 30.08 in    
Wind  
Wind Speed 5 mph (East)    
Max Wind Speed 16 mph    
Max Gust Speed 28 mph    
Visibility 8 miles    
Events Rain    
Averages and records for this station are not official NWS values.
T = Trace of Precipitation, MM = Missing Value Source: NWS Daily Summary

Daily Weather History Graph

Daily Weather History Graph

Search for Another Location

Airport or City:

Trip Planner

Search our weather history database for the weather conditions in past years. The results will help you decide how hot, cold, wet, or windy it might be!

Date:

Astronomy

Feb. 26, 2013 Rise Set
Actual Time 6:36 AM EST 5:48 PM EST
Civil Twilight 6:09 AM EST 6:15 PM EST
Nautical Twilight 5:38 AM EST 6:46 PM EST
Astronomical Twilight 5:06 AM EST 7:18 PM EST
Moon 7:02 PM EST (2/26) 6:38 AM EST (2/26)
Length of Visible Light 12h 05m
Length of Day
11h 11m
Full, 99% of the Moon is Illuminated
Feb 26
Full
Mar 4
Last Quarter
Mar 11
New
Mar 19
First Quarter
Mar 27
Full

Hourly Weather History & Observations

Time (EST) Temp. Windchill Dew Point Humidity Pressure Visibility Wind Dir Wind Speed Gust Speed Precip Events Conditions
12:54 AM 26.1 °F - 23.0 °F 88% 30.25 in 10.0 mi Calm Calm - N/A   Clear
1:54 AM 26.1 °F - 24.1 °F 92% 30.25 in 10.0 mi Calm Calm - N/A   Clear
2:54 AM 26.1 °F - 21.9 °F 84% 30.26 in 9.0 mi Calm Calm - N/A   Clear
3:54 AM 25.0 °F - 21.9 °F 88% 30.25 in 9.0 mi Calm Calm - N/A   Clear
4:54 AM 25.0 °F - 21.9 °F 88% 30.24 in 7.0 mi Calm Calm - N/A   Clear
5:54 AM 25.0 °F - 21.9 °F 88% 30.23 in 7.0 mi Calm Calm - N/A   Clear
6:54 AM 25.0 °F - 23.0 °F 92% 30.25 in 6.0 mi Calm Calm - N/A   Clear
7:54 AM 28.0 °F - 26.1 °F 92% 30.26 in 6.0 mi Calm Calm - N/A   Clear
8:54 AM 33.1 °F - 28.0 °F 82% 30.26 in 9.0 mi Calm Calm - N/A   Clear
9:54 AM 37.9 °F 35.5 °F 30.0 °F 73% 30.26 in 10.0 mi East 3.5 mph - N/A   Clear
10:54 AM 43.0 °F 37.2 °F 30.0 °F 60% 30.25 in 10.0 mi East 10.4 mph - N/A   Overcast
11:54 AM 45.0 °F 39.7 °F 30.9 °F 58% 30.23 in 10.0 mi ESE 10.4 mph 17.3 mph N/A   Overcast
1:54 PM 44.1 °F 38.1 °F 30.0 °F 58% 30.18 in 10.0 mi East 11.5 mph 18.4 mph N/A   Overcast
2:54 PM 43.0 °F 38.2 °F 30.0 °F 60% 30.14 in 10.0 mi East 8.1 mph 20.7 mph N/A   Overcast
3:54 PM 42.1 °F 36.6 °F 30.9 °F 65% 30.12 in 10.0 mi ENE 9.2 mph 21.9 mph N/A   Overcast
4:14 PM 42.8 °F 36.6 °F 32.0 °F 66% 30.12 in 10.0 mi East 11.5 mph 16.1 mph N/A   Overcast
4:54 PM 41.0 °F 34.3 °F 33.1 °F 73% 30.09 in 10.0 mi East 11.5 mph 21.9 mph N/A   Overcast
5:54 PM 41.0 °F 35.2 °F 33.1 °F 73% 30.06 in 10.0 mi East 9.2 mph 20.7 mph N/A   Overcast
6:20 PM 41.0 °F 32.8 °F 33.8 °F 76% 30.04 in 10.0 mi East 16.1 mph 21.9 mph N/A   Overcast
6:54 PM 41.0 °F 33.9 °F 33.1 °F 73% 30.02 in 10.0 mi East 12.7 mph 23.0 mph N/A   Overcast
7:54 PM 39.0 °F 31.0 °F 34.0 °F 82% 29.97 in 5.0 mi East 13.8 mph 21.9 mph 0.05 in Rain Light Rain
8:54 PM 37.9 °F 28.9 °F 34.0 °F 86% 29.93 in 10.0 mi East 16.1 mph 23.0 mph 0.02 in Rain Light Rain
9:08 PM 37.4 °F 29.8 °F 35.6 °F 93% 29.94 in 5.0 mi East 11.5 mph 23.0 mph 0.03 in Rain Heavy Rain
9:54 PM 39.0 °F 31.4 °F 37.0 °F 93% 29.88 in 8.0 mi ENE 12.7 mph 25.3 mph 0.09 in Rain Light Rain
10:05 PM 39.2 °F 32.0 °F 37.4 °F 93% 29.85 in 8.0 mi ENE 11.5 mph 23.0 mph 0.01 in Rain Light Rain
10:54 PM 39.9 °F 32.5 °F 37.9 °F 93% 29.81 in 3.0 mi East 12.7 mph 27.6 mph 0.06 in Rain Light Rain
11:09 PM 39.2 °F 30.8 °F 37.4 °F 93% 29.80 in 2.0 mi East 15.0 mph 25.3 mph 0.07 in Rain Heavy Rain
11:25 PM 39.2 °F 31.6 °F 37.4 °F 93% 29.79 in 4.0 mi ENE 12.7 mph 20.7 mph 0.11 in Rain Rain
11:50 PM 41.0 °F 34.7 °F 39.2 °F 93% 29.80 in 2.5 mi ENE 10.4 mph 20.7 mph 0.17 in Rain Rain
11:54 PM 41.0 °F 35.2 °F 39.0 °F 93% 29.80 in 3.0 mi ENE 9.2 mph 19.6 mph 0.18 in Rain Rain